TimeCST,TemperatureF,Dew PointF,Humidity,Sea Level PressureIn,VisibilityMPH,Wind Direction,Wind SpeedMPH,Gust SpeedMPH,PrecipitationIn,Events,Conditions,WindDirDegrees,DateUTC
12:27 AM,10.0,3.0,73,30.68,4.0,NNW,13.8,-,0.00,Snow,Light Snow,340,2013-11-23 06:27:00
12:36 AM,10.0,3.0,73,30.68,6.0,NNW,11.5,-,0.00,Snow,Light Snow,330,2013-11-23 06:36:00
12:53 AM,10.0,3.0,73,30.77,6.0,NNW,11.5,-,0.00,Snow,Light Snow,330,2013-11-23 06:53:00
1:53 AM,9.0,1.9,73,30.79,10.0,NW,11.5,20.7,0.00,,Overcast,310,2013-11-23 07:53:00
2:02 AM,9.0,1.9,73,30.71,10.0,NW,10.4,-,N/A,,Overcast,310,2013-11-23 08:02:00
2:38 AM,7.0,1.0,77,30.72,7.0,WNW,11.5,21.9,0.00,Snow,Light Snow,300,2013-11-23 08:38:00
2:53 AM,7.0,-0.0,73,30.81,9.0,WNW,11.5,21.9,0.00,,Overcast,300,2013-11-23 08:53:00
3:53 AM,6.1,1.0,80,30.82,5.0,NW,17.3,23.0,0.00,Snow,Light Snow,320,2013-11-23 09:53:00
4:53 AM,3.0,-2.0,80,30.84,9.0,WNW,8.1,-,0.00,,Overcast,300,2013-11-23 10:53:00
5:53 AM,3.0,-0.9,84,30.85,6.0,NW,10.4,-,N/A,,Overcast,320,2013-11-23 11:53:00
6:28 AM,1.9,-2.9,80,30.77,10.0,NNW,13.8,-,0.00,,Scattered Clouds,330,2013-11-23 12:28:00
6:53 AM,1.9,-2.9,80,30.86,9.0,NW,10.4,-,0.00,,Partly Cloudy,320,2013-11-23 12:53:00
7:13 AM,-0.0,-4.0,83,30.77,5.0,Variable,5.8,-,N/A,,Mostly Cloudy,0,2013-11-23 13:13:00
7:53 AM,-0.9,-5.1,83,30.87,4.0,WNW,5.8,-,0.00,Snow,Light Snow,290,2013-11-23 13:53:00
8:53 AM,-0.9,-5.1,83,30.89,2.5,Variable,5.8,-,0.00,Snow,Light Snow,0,2013-11-23 14:53:00
9:02 AM,-2.0,-5.1,87,30.80,1.8,WNW,5.8,-,0.00,Snow,Light Snow,290,2013-11-23 15:02:00
9:10 AM,-2.0,-5.1,87,30.79,2.5,WNW,6.9,-,0.00,,Overcast,300,2013-11-23 15:10:00
9:17 AM,-2.0,-6.0,83,30.79,3.0,WNW,5.8,-,0.00,,Overcast,290,2013-11-23 15:17:00
9:53 AM,-0.0,-4.0,83,30.90,8.0,Variable,3.5,-,0.00,,Overcast,0,2013-11-23 15:53:00
10:19 AM,1.9,-4.0,76,30.80,10.0,Variable,5.8,-,N/A,,Scattered Clouds,0,2013-11-23 16:19:00
10:53 AM,3.0,-2.0,80,30.89,10.0,Variable,4.6,-,N/A,,Clear,0,2013-11-23 16:53:00
11:53 AM,5.0,-2.9,70,30.88,10.0,Variable,5.8,-,N/A,,Clear,0,2013-11-23 17:53:00
12:53 PM,5.0,-2.9,70,30.87,10.0,NW,9.2,-,N/A,,Clear,310,2013-11-23 18:53:00
1:53 PM,5.0,-5.1,63,30.84,10.0,NW,9.2,-,N/A,,Clear,310,2013-11-23 19:53:00
2:53 PM,6.1,-6.0,58,30.83,10.0,WNW,6.9,-,N/A,,Clear,290,2013-11-23 20:53:00
3:53 PM,3.9,-7.1,60,30.82,10.0,WNW,4.6,-,N/A,,Clear,300,2013-11-23 21:53:00
4:53 PM,1.9,-8.0,63,30.82,10.0,WNW,3.5,-,N/A,,Clear,300,2013-11-23 22:53:00
5:53 PM,-0.0,-8.0,69,30.81,10.0,WNW,5.8,-,N/A,,Clear,300,2013-11-23 23:53:00
6:53 PM,-0.9,-7.1,75,30.78,10.0,Calm,Calm,-,N/A,,Clear,0,2013-11-24 00:53:00
7:53 PM,-4.0,-8.0,83,30.78,10.0,SW,3.5,-,N/A,,Clear,220,2013-11-24 01:53:00
8:53 PM,-5.1,-9.0,83,30.74,10.0,Calm,Calm,-,N/A,,Clear,0,2013-11-24 02:53:00
9:53 PM,-2.9,-8.0,79,30.71,10.0,SSW,4.6,-,N/A,,Clear,200,2013-11-24 03:53:00
10:53 PM,-2.9,-7.1,82,30.70,10.0,SSW,4.6,-,N/A,,Clear,200,2013-11-24 04:53:00
11:53 PM,-0.9,-5.1,83,30.66,10.0,South,8.1,-,N/A,,Clear,190,2013-11-24 05:53:00